Погода в Красногоровке

Украина / Донецкая область     48°00′34″N   37°30′43″E
темп.,
°C
ветер,
м/с
пор.,
м/с
влажн.,
%
обл.,
%
осадки,
мм/ч
давл.,
гПа
погр.,
м
14 апреля, ср
ср1400:00+8юз117978 0.0 102219
03:00+9с1275100 0.0 102046
06:00+9с1176100 0.1 101919
09:00+9с2284100 0.9 1018169
12:00+14юз226093 0.0 10171077
15:00+15зюз3258100 0.1 10161119
18:00+14зсз335981 0.0 1015874
21:00+10зюз247596 0.0 1016127
15 апреля, чт
чт1500:00+8юз36825 0.0 1016160
03:00+7юз238524 0.0 101684
06:00+7ю2482100 0.0 1016112
09:00+11ю466245 0.0 1016665
12:00+15ю575251 0.0 10151361
15:00+16ю685173 0.0 10141538
18:00+13ююз676688 0.1 10141310
21:00+10ююз48765 0.1 1015447
16 апреля, пт
пт1600:00+8ююз37860 0.0 1015258
03:00+6ююз36890 0.0 1016216
06:00+5ююз36885 0.0 1017204
09:00+9ююз46645 0.0 1018776
12:00+13ююз574768 0.0 10171885
15:00+13зюз564552 0.0 10171734
18:00+12зюз455092 0.0 10181192
21:00+10юз3660100 0.0 1019536
17 апреля, сб
сб1700:00+8зюз2577100 0.0 1020331
03:00+7юз247489 0.0 1020269
06:00+5зюз22875 0.0 102188
09:00+9зюз33665 0.0 1021656
12:00+12з555187 0.1 10211650
15:00+12з3453100 0.1 10221493
18:00+11юз345791 0.1 10211007
21:00+9ююз246590 0.1 1022153
18 апреля, вс
вс1800:00+9ю2268100 0.0 102284
03:00+9ююв1168100 0.0 102253
06:00+8юв237415 0.0 102266
09:00+11юв3455100 0.0 1022643
12:00+14юв4445100 0.0 10211696
15:00+16юв333487 0.0 10202154
18:00+15ююв5549100 0.0 1020797
21:00+12юв3663100 0.0 1021284